TimeCST,TemperatureF,Dew PointF,Humidity,Sea Level PressureIn,VisibilityMPH,Wind Direction,Wind SpeedMPH,Gust SpeedMPH,PrecipitationIn,Events,Conditions,WindDirDegrees,DateUTC
12:15 AM,32.0,30.2,93,29.64,1.0,NNW,20.7,26.5,N/A,Snow,Light Snow,340,2013-01-30 06:15:00
12:35 AM,32.0,30.2,93,29.64,1.0,NNW,24.2,32.2,N/A,Snow,Snow,340,2013-01-30 06:35:00
12:55 AM,31.8,30.2,94,29.64,0.8,North,21.9,-,N/A,Snow,Snow,350,2013-01-30 06:55:00
1:15 AM,31.3,29.7,94,29.64,0.8,NNW,19.6,-,N/A,Snow,Snow,340,2013-01-30 07:15:00
1:35 AM,30.7,29.1,94,29.66,0.8,North,25.3,31.1,N/A,Snow,Snow,350,2013-01-30 07:35:00
1:55 AM,30.4,28.8,94,29.67,1.0,NNW,20.7,-,N/A,Snow,Snow,340,2013-01-30 07:55:00
2:15 AM,29.7,27.9,93,29.69,0.8,North,28.8,33.4,N/A,Snow,Snow,350,2013-01-30 08:15:00
2:35 AM,29.1,27.5,94,29.69,0.8,North,19.6,25.3,N/A,Snow,Snow,350,2013-01-30 08:35:00
2:55 AM,27.9,26.1,93,29.71,-9999.0,NNW,21.9,-,N/A,,Overcast,340,2013-01-30 08:55:00
3:15 AM,26.1,24.1,92,29.72,-9999.0,NNW,25.3,-,N/A,,Overcast,340,2013-01-30 09:15:00
3:35 AM,25.3,23.2,91,29.73,-9999.0,NNW,16.1,-,N/A,,Overcast,340,2013-01-30 09:35:00
3:55 AM,25.2,23.0,91,29.73,-9999.0,NNW,18.4,24.2,N/A,,Overcast,340,2013-01-30 09:55:00
4:15 AM,25.2,23.0,91,29.73,-9999.0,NNW,18.4,25.3,N/A,,Overcast,340,2013-01-30 10:15:00
4:35 AM,24.8,22.5,91,29.74,-9999.0,NNW,24.2,28.8,N/A,,Overcast,330,2013-01-30 10:35:00
4:55 AM,24.4,22.1,91,29.74,-9999.0,NNW,16.1,24.2,N/A,,Overcast,330,2013-01-30 10:55:00
5:15 AM,23.7,21.2,90,29.75,-9999.0,NNW,19.6,-,N/A,,Overcast,330,2013-01-30 11:15:00
5:35 AM,23.7,21.2,90,29.76,-9999.0,NNW,20.7,-,N/A,,Overcast,330,2013-01-30 11:35:00
5:55 AM,23.0,21.2,93,29.76,1.2,NNW,24.2,29.9,N/A,Snow,Light Snow,330,2013-01-30 11:55:00
6:15 AM,23.2,20.8,91,29.77,1.0,NNW,24.2,31.1,N/A,Snow,Light Snow,330,2013-01-30 12:15:00
6:35 AM,23.0,20.1,89,29.78,1.5,NNW,20.7,26.5,N/A,Snow,Light Snow,330,2013-01-30 12:35:00
6:55 AM,22.8,19.4,87,29.80,2.5,NNW,20.7,26.5,N/A,Snow,Light Snow,330,2013-01-30 12:55:00
7:15 AM,23.0,19.2,85,29.80,3.0,NNW,17.3,21.9,N/A,,Overcast,330,2013-01-30 13:15:00
7:35 AM,23.0,19.0,85,29.81,5.0,NNW,21.9,-,N/A,,Overcast,330,2013-01-30 13:35:00
7:55 AM,23.0,19.2,85,29.82,2.5,NNW,21.9,-,N/A,Snow,Light Snow,340,2013-01-30 13:55:00
8:15 AM,23.0,18.5,83,29.84,1.8,NNW,21.9,28.8,N/A,Snow,Light Snow,340,2013-01-30 14:15:00
8:35 AM,22.8,18.3,83,29.84,3.0,NNW,21.9,31.1,N/A,Snow,Light Snow,340,2013-01-30 14:35:00
8:55 AM,22.8,18.5,83,29.85,2.5,NNW,19.6,-,N/A,Snow,Light Snow,340,2013-01-30 14:55:00
9:15 AM,23.0,18.5,83,29.85,4.0,NNW,17.3,-,N/A,Snow,Light Snow,330,2013-01-30 15:15:00
9:35 AM,23.2,18.7,83,29.85,3.0,NNW,18.4,24.2,N/A,Snow,Light Snow,330,2013-01-30 15:35:00
9:55 AM,23.0,17.8,80,29.85,2.5,NNW,20.7,27.6,N/A,,Haze,340,2013-01-30 15:55:00
10:15 AM,22.6,16.7,78,29.86,1.5,North,24.2,31.1,N/A,,Haze,350,2013-01-30 16:15:00
10:35 AM,23.0,16.7,77,29.87,5.0,NNW,17.3,25.3,N/A,,Haze,340,2013-01-30 16:35:00
10:55 AM,23.5,17.6,78,29.88,7.0,NW,19.6,-,N/A,,Overcast,320,2013-01-30 16:55:00
11:15 AM,23.2,18.0,80,29.88,2.0,NNW,17.3,23.0,N/A,Snow,Light Snow,330,2013-01-30 17:15:00
11:35 AM,23.0,18.0,81,29.88,1.8,NNW,19.6,25.3,N/A,Snow,Light Snow,330,2013-01-30 17:35:00
11:55 AM,23.4,18.3,81,29.88,2.0,NNW,20.7,-,N/A,Snow,Light Snow,330,2013-01-30 17:55:00
12:15 PM,23.2,17.6,79,29.88,2.5,NNW,17.3,-,N/A,Snow,Light Snow,330,2013-01-30 18:15:00
12:35 PM,24.1,17.1,75,29.88,7.0,NNW,16.1,-,N/A,,Mostly Cloudy,340,2013-01-30 18:35:00
12:55 PM,24.4,16.3,71,29.88,10.0,NNW,18.4,-,N/A,,Overcast,330,2013-01-30 18:55:00
1:15 PM,23.9,18.1,79,29.88,5.0,NNW,20.7,25.3,N/A,Snow,Light Snow,330,2013-01-30 19:15:00
1:35 PM,23.7,18.1,79,29.88,7.0,NW,19.6,24.2,N/A,Snow,Light Snow,320,2013-01-30 19:35:00
1:55 PM,23.5,17.2,77,29.88,7.0,NNW,17.3,26.5,N/A,Snow,Light Snow,330,2013-01-30 19:55:00
2:15 PM,23.0,15.4,73,29.88,10.0,NNW,15.0,25.3,N/A,,Mostly Cloudy,330,2013-01-30 20:15:00
2:35 PM,23.5,14.9,70,29.88,10.0,NNW,17.3,-,N/A,,Overcast,330,2013-01-30 20:35:00
2:55 PM,23.5,15.6,72,29.88,10.0,NW,16.1,-,N/A,,Overcast,320,2013-01-30 20:55:00
3:15 PM,23.7,16.3,73,29.88,10.0,NW,15.0,-,N/A,,Overcast,320,2013-01-30 21:15:00
3:35 PM,23.7,16.3,73,29.88,10.0,NW,11.5,-,N/A,,Overcast,320,2013-01-30 21:35:00
3:55 PM,23.7,15.8,72,29.89,10.0,NNW,13.8,-,N/A,,Overcast,330,2013-01-30 21:55:00
4:15 PM,23.0,14.7,71,29.89,10.0,NNW,15.0,-,N/A,,Overcast,330,2013-01-30 22:15:00
4:35 PM,23.0,14.9,71,29.89,10.0,NW,16.1,-,N/A,,Overcast,320,2013-01-30 22:35:00
4:55 PM,22.6,14.7,72,29.90,10.0,NW,11.5,-,N/A,,Overcast,320,2013-01-30 22:55:00
5:15 PM,21.6,13.8,72,29.90,10.0,NW,10.4,-,N/A,,Scattered Clouds,320,2013-01-30 23:15:00
5:35 PM,18.9,12.2,75,29.90,10.0,NW,8.1,-,N/A,,Clear,310,2013-01-30 23:35:00
5:55 PM,19.2,12.2,74,29.90,10.0,WNW,5.8,-,N/A,,Clear,290,2013-01-30 23:55:00
6:15 PM,18.7,12.0,75,29.90,10.0,West,4.6,-,N/A,,Clear,260,2013-01-31 00:15:00
6:35 PM,15.3,10.0,80,29.90,10.0,WSW,5.8,-,N/A,,Clear,240,2013-01-31 00:35:00
6:55 PM,13.6,8.6,80,29.90,10.0,SW,4.6,-,N/A,,Clear,230,2013-01-31 00:55:00
7:15 PM,11.1,7.3,85,29.90,10.0,SSW,3.5,-,N/A,,Clear,210,2013-01-31 01:15:00
7:35 PM,12.4,9.0,86,29.91,10.0,SW,6.9,-,N/A,,Clear,230,2013-01-31 01:35:00
7:55 PM,13.1,9.7,86,29.90,10.0,SW,5.8,-,N/A,,Clear,230,2013-01-31 01:55:00
8:15 PM,12.6,9.3,87,29.90,10.0,SSW,5.8,-,N/A,,Clear,210,2013-01-31 02:15:00
8:35 PM,12.6,9.0,85,29.90,10.0,SW,5.8,-,N/A,,Clear,230,2013-01-31 02:35:00
8:55 PM,12.4,9.9,90,29.90,10.0,SW,5.8,-,N/A,,Clear,220,2013-01-31 02:55:00
9:15 PM,13.1,9.3,85,29.90,10.0,SW,6.9,-,N/A,,Clear,220,2013-01-31 03:15:00
9:35 PM,12.0,8.6,86,29.90,10.0,SW,5.8,-,N/A,,Clear,220,2013-01-31 03:35:00
9:55 PM,14.5,10.6,84,29.90,10.0,WSW,5.8,-,N/A,,Clear,240,2013-01-31 03:55:00
10:15 PM,12.9,9.1,85,29.90,10.0,WSW,8.1,-,N/A,,Clear,240,2013-01-31 04:15:00
10:35 PM,11.3,7.5,85,29.91,10.0,West,3.5,-,N/A,,Scattered Clouds,270,2013-01-31 04:35:00
10:55 PM,11.8,8.6,87,29.91,10.0,West,3.5,-,N/A,,Overcast,280,2013-01-31 04:55:00
11:15 PM,15.4,11.7,85,29.92,10.0,West,4.6,-,N/A,,Overcast,280,2013-01-31 05:15:00
11:35 PM,14.9,11.1,85,29.92,10.0,Calm,Calm,-,N/A,,Overcast,0,2013-01-31 05:35:00
11:55 PM,16.3,12.7,86,29.93,10.0,North,9.2,-,N/A,,Overcast,360,2013-01-31 05:55:00